QPF
0.02 0.02 0.02 0.02 0.02 0.03 0.03 0.04 0.05 0.06 0.06 0.07 0.07 0.09 0.10 0.10 0.10 0.09 0.08 0.06 0.05 0.04 0.03 0.02 0.02 0.01 0.01 0.01 0.01 0.01 0.01 0.01 0.01 0.01 0.01 0.01 0.02 0.02 0.02 0.02 0.02 0.01 0.01
0.01 0.01 0.02 0.02 0.02 0.03 0.03 0.03 0.03 0.04 0.05 0.06 0.06 0.06 0.07 0.06 0.06 0.05 0.05 0.05 0.05 0.05 0.04 0.03 0.02 0.02 0.02 0.02 0.02 0.02 0.02 0.02 0.02 0.02 0.02 0.02 0.02 0.02 0.02 0.02 0.01 0.01 0.01
0.00 0.00 0.01 0.01 0.02 0.02 0.02 0.02 0.03 0.03 0.03 0.04 0.04 0.04 0.03 0.03 0.03 0.03 0.03 0.02 0.03 0.03 0.03 0.03 0.03 0.02 0.02 0.02 0.02 0.02 0.03 0.03 0.04 0.04 0.03 0.03 0.02 0.02 0.02 0.01 0.01 0.01 0.01
0.00 0.00 0.01 0.01 0.01 0.02 0.02 0.02 0.03 0.03 0.03 0.03 0.02 0.01 0.01 0.01 0.01 0.02 0.02 0.02 0.02 0.02 0.02 0.02 0.02 0.02 0.02 0.02 0.02 0.02 0.02 0.02 0.03 0.03 0.02 0.02 0.01 0.01 0.01 0.00 0.00 0.00 0.00
0.00 0.01 0.01 0.01 0.01 0.02 0.02 0.03 0.03 0.03 0.03 0.02 0.01 0.00 0.00 0.00 0.01 0.01 0.01 0.02 0.03 0.03 0.03 0.02 0.02 0.03 0.03 0.03 0.03 0.02 0.02 0.02 0.02 0.02 0.01 0.01 0.01 0.00 0.00 0.00 0.00 0.00 0.00
0.01 0.01 0.01 0.02 0.02 0.02 0.03 0.03 0.02 0.02 0.02 0.01 0.00 0.00 0.00 0.00 0.00 0.01 0.01 0.01 0.01 0.02 0.02 0.02 0.02 0.02 0.02 0.02 0.03 0.03 0.02 0.02 0.02 0.02 0.01 0.01 0.01 0.00 0.01 0.01 0.01 0.01 0.01
0.02 0.02 0.02 0.02 0.02 0.02 0.02 0.02 0.02 0.01 0.01 0.00 0.00 0.00 0.00 0.00 0.00 0.00 0.01 0.01 0.01 0.01 0.01 0.01 0.01 0.01 0.01 0.01 0.01 0.01 0.01 0.01 0.01 0.01 0.02 0.01 0.01 0.01 0.01 0.02 0.01 0.01 0.01
0.02 0.02 0.02 0.02 0.02 0.01 0.01 0.01 0.01 0.01 0.01 0.00 0.00 0.00 0.00 0.00 0.00 0.00 0.00 0.00 0.00 0.00 0.00 0.00 0.00 0.00 0.01 0.01 0.01 0.01 0.01 0.01 0.01 0.01 0.01 0.01 0.01 0.01 0.01 0.02 0.02 0.01 0.01
0.02 0.01 0.01 0.01 0.01 0.01 0.01 0.00 0.00 0.00 0.00 0.00 0.00 0.00 0.00 0.00 0.00 0.00 0.01 0.01 0.01 0.00 0.00 0.00 0.00 0.01 0.01 0.01 0.01 0.02 0.01 0.01 0.01 0.01 0.01 0.01 0.01 0.01 0.01 0.02 0.02 0.02 0.01
0.01 0.01 0.01 0.01 0.01 0.00 0.00 0.00 0.00 0.00 0.00 0.00 0.00 0.00 0.00 0.01 0.01 0.01 0.01 0.01 0.01 0.01 0.01 0.01 0.01 0.01 0.01 0.02 0.02 0.02 0.02 0.01 0.01 0.01 0.01 0.00 0.00 0.00 0.01 0.01 0.02 0.02 0.02
0.01 0.01 0.00 0.00 0.00 0.00 0.00 0.00 0.00 0.00 0.00 0.00 0.00 0.00 0.00 0.00 0.01 0.01 0.01 0.02 0.02 0.02 0.01 0.01 0.01 0.02 0.02 0.02 0.02 0.02 0.02 0.01 0.01 0.01 0.01 0.01 0.00 0.00 0.00 0.00 0.01 0.02 0.02
0.01 0.00 0.00 0.00 0.00 0.00 0.00 0.00 0.00 0.00 0.00 0.00 0.00 0.00 0.01 0.00 0.00 0.01 0.01 0.02 0.02 0.03 0.02 0.02 0.02 0.02 0.02 0.02 0.02 0.01 0.02 0.02 0.02 0.02 0.01 0.01 0.00 0.00 0.00 0.00 0.00 0.01 0.01
0.01 0.00 0.00 0.00 0.00 0.00 0.00 0.00 0.00 0.00 0.00 0.00 0.00 0.00 0.00 0.00 0.00 0.01 0.01 0.01 0.01 0.02 0.02 0.02 0.02 0.02 0.02 0.02 0.01 0.01 0.01 0.01 0.01 0.01 0.01 0.01 0.00 0.00 0.00 0.00 0.00 0.00 0.00
0.00 0.00 0.00 0.00 0.00 0.00 0.00 0.00 0.00 0.00 0.00 0.00 0.00 0.00 0.00 0.00 0.00 0.01 0.01 0.01 0.01 0.01 0.01 0.01 0.01 0.01 0.02 0.02 0.01 0.01 0.01 0.01 0.01 0.01 0.01 0.01 0.01 0.01 0.00 0.00 0.00 0.00 0.00
0.00 0.00 0.00 0.00 0.00 0.00 0.00 0.00 0.00 0.00 0.00 0.01 0.01 0.01 0.01 0.01 0.01 0.01 0.01 0.01 0.01 0.01 0.02 0.01 0.01 0.01 0.01 0.01 0.01 0.01 0.00 0.01 0.01 0.01 0.01 0.01 0.01 0.01 0.01 0.01 0.01 0.01 0.01
0.00 0.00 0.00 0.00 0.00 0.00 0.00 0.00 0.00 0.00 0.00 0.00 0.00 0.01 0.01 0.01 0.01 0.01 0.01 0.01 0.02 0.02 0.02 0.02 0.01 0.01 0.01 0.01 0.01 0.01 0.00 0.01 0.01 0.01 0.01 0.01 0.01 0.01 0.01 0.01 0.01 0.01 0.01
0.00 0.00 0.00 0.00 0.00 0.00 0.00 0.00 0.00 0.00 0.00 0.00 0.00 0.00 0.00 0.01 0.01 0.01 0.01 0.01 0.01 0.01 0.01 0.01 0.01 0.01 0.01 0.01 0.01 0.01 0.01 0.01 0.01 0.01 0.01 0.01 0.01 0.01 0.01 0.01 0.01 0.01 0.01
0.00 0.00 0.00 0.00 0.00 0.00 0.00 0.00 0.00 0.00 0.00 0.00 0.00 0.00 0.00 0.00 0.00 0.01 0.01 0.01 0.01 0.01 0.01 0.01 0.01 0.01 0.01 0.01 0.01 0.01 0.01 0.01 0.01 0.01 0.01 0.01 0.01 0.01 0.01 0.01 0.01 0.01 0.01
0.00 0.00 0.00 0.00 0.00 0.00 0.00 0.00 0.00 0.00 0.00 0.00 0.00 0.00 0.00 0.00 0.00 0.00 0.01 0.01 0.01 0.01 0.01 0.01 0.01 0.01 0.01 0.01 0.01 0.01 0.01 0.01 0.01 0.01 0.01 0.01 0.01 0.01 0.01 0.01 0.01 0.01 0.01
0.00 0.00 0.00 0.00 0.00 0.00 0.00 0.00 0.00 0.00 0.00 0.00 0.00 0.00 0.01 0.01 0.01 0.01 0.01 0.01 0.01 0.01 0.01 0.01 0.01 0.01 0.01 0.01 0.01 0.01 0.02 0.01 0.01 0.01 0.01 0.01 0.01 0.01 0.01 0.01 0.01 0.01 0.01
0.00 0.00 0.00 0.00 0.00 0.00 0.00 0.01 0.00 0.00 0.00 0.00 0.00 0.00 0.01 0.01 0.01 0.00 0.00 0.00 0.01 0.01 0.01 0.01 0.01 0.01 0.01 0.01 0.02 0.02 0.02 0.01 0.01 0.01 0.01 0.01 0.01 0.01 0.01 0.01 0.01 0.01 0.01
0.00 0.00 0.00 0.00 0.00 0.01 0.01 0.01 0.01 0.01 0.00 0.00 0.00 0.00 0.01 0.00 0.00 0.00 0.00 0.00 0.01 0.01 0.01 0.01 0.01 0.01 0.01 0.01 0.02 0.02 0.02 0.01 0.01 0.02 0.02 0.01 0.01 0.01 0.01 0.01 0.01 0.01 0.01
0.00 0.00 0.00 0.00 0.01 0.01 0.01 0.01 0.01 0.01 0.00 0.00 0.00 0.01 0.01 0.01 0.00 0.00 0.00 0.00 0.01 0.01 0.01 0.01 0.01 0.01 0.01 0.01 0.01 0.02 0.02 0.01 0.01 0.02 0.02 0.02 0.01 0.01 0.01 0.01 0.01 0.01 0.01
0.00 0.00 0.01 0.01 0.01 0.01 0.01 0.01 0.01 0.01 0.01 0.01 0.01 0.01 0.01 0.01 0.01 0.00 0.00 0.00 0.01 0.01 0.01 0.01 0.01 0.01 0.01 0.01 0.01 0.01 0.01 0.01 0.01 0.02 0.02 0.02 0.02 0.01 0.01 0.01 0.01 0.01 0.01
0.01 0.01 0.01 0.01 0.01 0.01 0.01 0.01 0.01 0.01 0.01 0.01 0.01 0.01 0.01 0.01 0.01 0.00 0.00 0.01 0.01 0.01 0.01 0.01 0.01 0.01 0.01 0.01 0.01 0.01 0.01 0.01 0.01 0.02 0.02 0.02 0.02 0.01 0.01 0.01 0.01 0.01 0.01
0.01 0.01 0.01 0.01 0.01 0.01 0.01 0.01 0.01 0.01 0.01 0.01 0.01 0.01 0.01 0.01 0.01 0.01 0.01 0.01 0.01 0.01 0.01 0.01 0.01 0.01 0.01 0.01 0.01 0.01 0.01 0.01 0.02 0.02 0.02 0.03 0.02 0.02 0.01 0.01 0.01 0.01 0.01
MSLP
1031.21 1031.77 1032.34 1032.84 1033.21 1033.42 1033.46 1033.37 1033.17 1032.93 1032.67 1032.41 1032.15 1031.88 1031.57 1031.19 1030.73 1030.21 1029.64 1029.06 1028.50 1027.99 1027.54 1027.14 1026.76 1026.34 1025.84 1025.19 1024.39 1023.42 1022.31 1021.11 1019.88 1018.68 1017.55 1016.54 1015.64 1014.83 1014.09 1013.38 1012.67 1011.94 1011.19
1031.02 1031.64 1032.25 1032.78 1033.16 1033.36 1033.39 1033.28 1033.07 1032.80 1032.51 1032.22 1031.93 1031.63 1031.29 1030.89 1030.41 1029.88 1029.30 1028.70 1028.13 1027.61 1027.15 1026.74 1026.34 1025.92 1025.42 1024.79 1024.02 1023.08 1022.01 1020.85 1019.63 1018.42 1017.27 1016.19 1015.19 1014.28 1013.42 1012.59 1011.78 1010.98 1010.18
1030.93 1031.60 1032.23 1032.76 1033.13 1033.31 1033.32 1033.17 1032.93 1032.63 1032.32 1032.00 1031.68 1031.35 1030.99 1030.57 1030.09 1029.54 1028.96 1028.35 1027.77 1027.23 1026.75 1026.30 1025.87 1025.42 1024.90 1024.27 1023.50 1022.58 1021.54 1020.41 1019.21 1018.01 1016.83 1015.70 1014.64 1013.63 1012.67 1011.75 1010.86 1009.99 1009.15
1030.92 1031.61 1032.24 1032.75 1033.09 1033.24 1033.21 1033.05 1032.78 1032.46 1032.13 1031.80 1031.46 1031.12 1030.74 1030.30 1029.81 1029.25 1028.65 1028.04 1027.44 1026.86 1026.33 1025.84 1025.35 1024.84 1024.27 1023.61 1022.82 1021.91 1020.88 1019.76 1018.59 1017.39 1016.21 1015.05 1013.94 1012.87 1011.83 1010.84 1009.88 1008.97 1008.11
1030.94 1031.64 1032.25 1032.72 1033.02 1033.14 1033.09 1032.90 1032.64 1032.32 1031.99 1031.66 1031.32 1030.97 1030.57 1030.12 1029.61 1029.04 1028.42 1027.77 1027.13 1026.51 1025.91 1025.34 1024.77 1024.18 1023.54 1022.81 1021.98 1021.05 1020.02 1018.92 1017.76 1016.58 1015.40 1014.24 1013.09 1011.98 1010.90 1009.86 1008.85 1007.91 1007.03
1031.00 1031.67 1032.24 1032.66 1032.92 1033.01 1032.94 1032.77 1032.52 1032.23 1031.93 1031.61 1031.28 1030.92 1030.52 1030.05 1029.51 1028.90 1028.24 1027.54 1026.84 1026.15 1025.47 1024.81 1024.14 1023.45 1022.71 1021.91 1021.02 1020.06 1019.01 1017.91 1016.77 1015.61 1014.45 1013.29 1012.14 1011.01 1009.90 1008.82 1007.79 1006.81 1005.92
1031.08 1031.71 1032.22 1032.59 1032.81 1032.87 1032.81 1032.66 1032.45 1032.21 1031.94 1031.65 1031.34 1030.98 1030.55 1030.04 1029.46 1028.80 1028.08 1027.33 1026.56 1025.78 1025.01 1024.25 1023.48 1022.68 1021.85 1020.96 1020.01 1019.00 1017.94 1016.84 1015.71 1014.57 1013.43 1012.28 1011.14 1010.00 1008.87 1007.77 1006.70 1005.70 1004.78
1031.21 1031.78 1032.23 1032.54 1032.71 1032.76 1032.71 1032.59 1032.43 1032.23 1032.01 1031.75 1031.44 1031.06 1030.60 1030.05 1029.41 1028.69 1027.91 1027.09 1026.24 1025.39 1024.54 1023.69 1022.83 1021.94 1021.02 1020.05 1019.04 1017.99 1016.90 1015.80 1014.68 1013.56 1012.43 1011.31 1010.17 1009.03 1007.88 1006.74 1005.64 1004.59 1003.62
1031.37 1031.88 1032.27 1032.52 1032.66 1032.70 1032.66 1032.57 1032.44 1032.28 1032.08 1031.84 1031.52 1031.11 1030.61 1030.00 1029.30 1028.52 1027.67 1026.79 1025.90 1024.99 1024.08 1023.17 1022.24 1021.29 1020.30 1019.27 1018.21 1017.12 1016.01 1014.90 1013.79 1012.68 1011.56 1010.44 1009.30 1008.15 1006.97 1005.79 1004.64 1003.53 1002.50
1031.57 1032.02 1032.35 1032.56 1032.67 1032.69 1032.65 1032.58 1032.47 1032.33 1032.13 1031.87 1031.52 1031.07 1030.50 1029.83 1029.07 1028.24 1027.35 1026.44 1025.52 1024.60 1023.67 1022.74 1021.78 1020.80 1019.77 1018.71 1017.61 1016.49 1015.36 1014.23 1013.11 1012.00 1010.88 1009.76 1008.60 1007.42 1006.20 1004.97 1003.75 1002.56 1001.46
1031.77 1032.19 1032.48 1032.65 1032.73 1032.73 1032.69 1032.62 1032.51 1032.35 1032.13 1031.82 1031.42 1030.90 1030.27 1029.54 1028.73 1027.86 1026.97 1026.06 1025.16 1024.26 1023.37 1022.46 1021.51 1020.53 1019.50 1018.42 1017.30 1016.16 1015.00 1013.85 1012.71 1011.57 1010.43 1009.28 1008.09 1006.86 1005.59 1004.30 1003.00 1001.74 1000.56
1031.96 1032.36 1032.62 1032.77 1032.83 1032.82 1032.77 1032.68 1032.54 1032.34 1032.07 1031.70 1031.22 1030.62 1029.93 1029.15 1028.31 1027.44 1026.57 1025.71 1024.86 1024.04 1023.21 1022.36 1021.47 1020.52 1019.50 1018.42 1017.29 1016.12 1014.93 1013.74 1012.56 1011.39 1010.21 1009.01 1007.77 1006.49 1005.17 1003.81 1002.44 1001.10 999.84
1032.10 1032.49 1032.75 1032.89 1032.95 1032.93 1032.87 1032.75 1032.57 1032.32 1031.98 1031.54 1030.98 1030.31 1029.56 1028.74 1027.90 1027.06 1026.24 1025.45 1024.70 1023.97 1023.24 1022.48 1021.66 1020.75 1019.76 1018.69 1017.54 1016.34 1015.11 1013.87 1012.64 1011.41 1010.17 1008.92 1007.63 1006.30 1004.92 1003.50 1002.08 1000.68 999.35
1032.17 1032.57 1032.84 1033.00 1033.07 1033.06 1032.99 1032.85 1032.64 1032.33 1031.92 1031.40 1030.77 1030.05 1029.26 1028.43 1027.60 1026.80 1026.05 1025.36 1024.72 1024.10 1023.47 1022.79 1022.04 1021.19 1020.22 1019.14 1017.97 1016.73 1015.46 1014.16 1012.87 1011.58 1010.29 1008.98 1007.64 1006.26 1004.84 1003.39 1001.92 1000.48 999.12
1032.17 1032.59 1032.89 1033.08 1033.18 1033.20 1033.14 1032.99 1032.75 1032.41 1031.95 1031.37 1030.69 1029.93 1029.11 1028.29 1027.49 1026.75 1026.08 1025.48 1024.93 1024.41 1023.87 1023.26 1022.56 1021.74 1020.78 1019.69 1018.49 1017.22 1015.89 1014.54 1013.19 1011.84 1010.50 1009.15 1007.78 1006.37 1004.93 1003.46 1001.98 1000.53 999.15
1032.11 1032.55 1032.89 1033.13 1033.28 1033.34 1033.31 1033.18 1032.94 1032.58 1032.10 1031.49 1030.78 1030.01 1029.20 1028.39 1027.63 1026.95 1026.34 1025.81 1025.33 1024.87 1024.38 1023.81 1023.13 1022.31 1021.34 1020.23 1019.00 1017.68 1016.31 1014.92 1013.53 1012.15 1010.78 1009.41 1008.02 1006.62 1005.18 1003.72 1002.26 1000.82 999.45
1031.99 1032.47 1032.85 1033.15 1033.36 1033.48 1033.50 1033.42 1033.20 1032.85 1032.37 1031.77 1031.07 1030.30 1029.50 1028.73 1028.00 1027.35 1026.78 1026.29 1025.84 1025.39 1024.91 1024.33 1023.64 1022.80 1021.80 1020.66 1019.40 1018.06 1016.67 1015.26 1013.86 1012.47 1011.10 1009.74 1008.38 1006.99 1005.59 1004.16 1002.74 1001.34 1000.00
1031.84 1032.35 1032.78 1033.14 1033.42 1033.62 1033.71 1033.67 1033.51 1033.20 1032.75 1032.17 1031.49 1030.75 1029.99 1029.24 1028.53 1027.90 1027.34 1026.84 1026.37 1025.90 1025.37 1024.75 1024.01 1023.13 1022.10 1020.93 1019.66 1018.31 1016.93 1015.54 1014.17 1012.81 1011.48 1010.16 1008.84 1007.51 1006.16 1004.78 1003.41 1002.05 1000.75
1031.65 1032.18 1032.67 1033.09 1033.45 1033.72 1033.88 1033.92 1033.81 1033.56 1033.16 1032.63 1031.99 1031.28 1030.55 1029.82 1029.13 1028.50 1027.91 1027.37 1026.85 1026.30 1025.70 1025.00 1024.19 1023.26 1022.19 1021.01 1019.75 1018.44 1017.10 1015.77 1014.46 1013.18 1011.92 1010.68 1009.43 1008.16 1006.87 1005.56 1004.25 1002.95 1001.69
1031.39 1031.96 1032.50 1032.99 1033.42 1033.76 1033.99 1034.10 1034.05 1033.86 1033.52 1033.04 1032.46 1031.80 1031.09 1030.39 1029.69 1029.03 1028.40 1027.79 1027.18 1026.54 1025.84 1025.05 1024.17 1023.18 1022.09 1020.92 1019.70 1018.45 1017.20 1015.97 1014.76 1013.59 1012.44 1011.29 1010.13 1008.94 1007.73 1006.48 1005.23 1003.98 1002.77
1031.05 1031.66 1032.25 1032.80 1033.30 1033.70 1034.00 1034.16 1034.18 1034.04 1033.76 1033.34 1032.80 1032.19 1031.52 1030.83 1030.13 1029.43 1028.74 1028.05 1027.34 1026.60 1025.79 1024.91 1023.96 1022.93 1021.83 1020.70 1019.54 1018.38 1017.25 1016.15 1015.08 1014.04 1013.01 1011.98 1010.92 1009.83 1008.69 1007.51 1006.32 1005.12 1003.95
1030.61 1031.27 1031.91 1032.52 1033.06 1033.52 1033.86 1034.07 1034.14 1034.05 1033.82 1033.45 1032.97 1032.40 1031.76 1031.08 1030.38 1029.65 1028.91 1028.14 1027.33 1026.49 1025.58 1024.62 1023.61 1022.56 1021.48 1020.39 1019.32 1018.28 1017.28 1016.33 1015.42 1014.53 1013.64 1012.73 1011.78 1010.78 1009.73 1008.62 1007.48 1006.33 1005.21
1030.04 1030.75 1031.45 1032.11 1032.69 1033.19 1033.57 1033.81 1033.91 1033.87 1033.68 1033.36 1032.93 1032.40 1031.80 1031.14 1030.43 1029.69 1028.90 1028.06 1027.18 1026.25 1025.27 1024.24 1023.19 1022.13 1021.08 1020.05 1019.08 1018.16 1017.31 1016.51 1015.76 1015.02 1014.28 1013.50 1012.67 1011.77 1010.80 1009.76 1008.68 1007.59 1006.52
1029.37 1030.14 1030.89 1031.58 1032.21 1032.73 1033.13 1033.40 1033.52 1033.51 1033.36 1033.08 1032.70 1032.22 1031.66 1031.02 1030.33 1029.57 1028.75 1027.87 1026.93 1025.94 1024.90 1023.84 1022.76 1021.71 1020.69 1019.73 1018.85 1018.06 1017.34 1016.69 1016.09 1015.50 1014.90 1014.25 1013.53 1012.73 1011.86 1010.91 1009.91 1008.88 1007.87
1028.62 1029.45 1030.24 1030.97 1031.63 1032.17 1032.59 1032.87 1033.01 1033.02 1032.91 1032.67 1032.33 1031.90 1031.38 1030.78 1030.11 1029.35 1028.53 1027.62 1026.65 1025.61 1024.54 1023.45 1022.37 1021.33 1020.35 1019.45 1018.66 1017.97 1017.38 1016.86 1016.38 1015.93 1015.45 1014.93 1014.33 1013.65 1012.88 1012.02 1011.12 1010.18 1009.25
1027.85 1028.72 1029.55 1030.32 1030.99 1031.55 1031.98 1032.27 1032.44 1032.47 1032.38 1032.19 1031.89 1031.50 1031.03 1030.47 1029.82 1029.08 1028.26 1027.35 1026.36 1025.31 1024.22 1023.12 1022.04 1021.01 1020.07 1019.23 1018.51 1017.91 1017.41 1016.99 1016.63 1016.29 1015.94 1015.53 1015.05 1014.48 1013.83 1013.09 1012.29 1011.46 1010.62
Thickness
5475 5473 5471 5468 5466 5464 5461 5459 5456 5453 5450 5447 5444 5441 5438 5435 5431 5428 5424 5419 5415 5411 5406 5402 5398 5394 5389 5385 5381 5376 5372 5368 5367 5370 5366 5361 5357 5353 5350 5347 5345 5343 5340
5467 5464 5461 5459 5457 5454 5451 5448 5445 5442 5439 5436 5433 5430 5426 5423 5419 5415 5411 5407 5402 5398 5393 5389 5385 5380 5375 5371 5366 5362 5357 5352 5349 5349 5349 5344 5340 5336 5333 5331 5329 5326 5323
5459 5456 5453 5450 5447 5445 5442 5438 5435 5431 5427 5424 5421 5417 5414 5410 5406 5403 5399 5394 5389 5385 5380 5376 5371 5366 5361 5356 5351 5347 5342 5338 5333 5330 5330 5327 5323 5319 5316 5314 5312 5309 5306
5451 5448 5445 5442 5439 5436 5432 5428 5424 5419 5416 5412 5408 5405 5402 5398 5395 5391 5387 5382 5377 5372 5367 5362 5358 5352 5348 5342 5338 5332 5327 5322 5318 5313 5311 5309 5305 5301 5297 5295 5295 5292 5289
5443 5440 5437 5434 5430 5426 5422 5417 5413 5408 5404 5400 5397 5394 5390 5387 5384 5380 5376 5371 5366 5361 5355 5350 5345 5339 5334 5329 5324 5318 5312 5307 5302 5298 5294 5291 5287 5283 5279 5276 5274 5273 5272
5437 5433 5430 5425 5421 5416 5412 5407 5403 5398 5393 5389 5386 5383 5379 5376 5373 5369 5364 5360 5355 5350 5344 5338 5333 5327 5322 5316 5310 5305 5298 5292 5287 5282 5278 5274 5270 5265 5261 5257 5253 5252 5255
5429 5425 5421 5417 5412 5407 5403 5398 5393 5388 5383 5379 5375 5372 5369 5365 5362 5358 5353 5348 5343 5338 5332 5327 5322 5316 5309 5303 5298 5292 5286 5279 5273 5268 5263 5258 5254 5250 5245 5241 5237 5232 5231
5421 5417 5413 5408 5403 5398 5393 5388 5384 5379 5374 5369 5365 5362 5358 5355 5350 5346 5342 5336 5332 5327 5321 5315 5309 5304 5297 5291 5286 5281 5274 5268 5262 5256 5250 5245 5239 5233 5228 5224 5219 5217 5214
5414 5410 5405 5400 5395 5390 5385 5380 5375 5370 5365 5360 5356 5352 5347 5344 5340 5335 5331 5325 5321 5316 5310 5304 5297 5292 5286 5280 5275 5270 5265 5258 5251 5244 5238 5232 5226 5220 5213 5208 5203 5198 5198
5408 5403 5398 5392 5387 5382 5377 5372 5366 5361 5356 5351 5347 5342 5338 5334 5330 5325 5320 5315 5310 5305 5300 5294 5287 5281 5275 5269 5263 5258 5253 5247 5241 5234 5228 5221 5214 5208 5201 5193 5187 5182 5178
5401 5395 5390 5385 5379 5374 5369 5363 5357 5351 5346 5341 5337 5333 5328 5323 5319 5314 5309 5303 5298 5293 5288 5283 5277 5271 5264 5259 5253 5246 5241 5235 5228 5222 5216 5210 5204 5197 5190 5182 5175 5168 5164
5393 5387 5382 5376 5371 5366 5359 5353 5347 5342 5336 5331 5327 5323 5318 5313 5308 5303 5298 5293 5287 5281 5277 5271 5265 5260 5254 5248 5242 5236 5229 5222 5215 5209 5203 5198 5192 5186 5179 5172 5165 5159 5154
5384 5378 5373 5368 5362 5356 5350 5344 5337 5331 5326 5321 5316 5312 5309 5304 5298 5293 5288 5282 5276 5270 5265 5259 5254 5248 5243 5237 5231 5224 5217 5209 5203 5197 5192 5187 5181 5175 5168 5163 5157 5152 5148
5376 5371 5365 5359 5353 5346 5340 5335 5328 5322 5317 5312 5307 5303 5299 5293 5288 5283 5277 5272 5266 5260 5254 5248 5242 5236 5230 5225 5218 5212 5205 5198 5191 5185 5180 5175 5169 5164 5158 5152 5147 5144 5141
5368 5362 5356 5350 5344 5338 5331 5325 5320 5316 5309 5304 5299 5294 5288 5283 5279 5273 5265 5260 5254 5249 5243 5236 5229 5224 5218 5212 5207 5200 5194 5187 5181 5175 5169 5164 5159 5154 5149 5143 5138 5133 5130
5359 5353 5347 5340 5334 5328 5322 5316 5312 5306 5301 5295 5290 5284 5279 5274 5269 5263 5257 5251 5245 5239 5230 5224 5218 5212 5207 5202 5196 5191 5185 5178 5172 5166 5160 5154 5150 5145 5140 5135 5129 5125 5122
5351 5345 5338 5331 5325 5318 5311 5305 5301 5297 5291 5286 5281 5275 5269 5264 5259 5254 5248 5242 5235 5228 5219 5213 5208 5202 5197 5192 5186 5181 5175 5170 5163 5158 5152 5146 5141 5136 5131 5126 5122 5118 5116
5341 5335 5329 5322 5315 5308 5302 5296 5290 5285 5279 5275 5271 5265 5259 5254 5249 5244 5239 5232 5224 5217 5210 5204 5199 5194 5188 5183 5178 5172 5167 5162 5156 5150 5145 5139 5133 5128 5123 5119 5115 5111 5108
5332 5326 5319 5312 5305 5298 5291 5285 5279 5273 5268 5263 5258 5254 5249 5243 5239 5234 5227 5219 5214 5208 5202 5196 5190 5185 5180 5175 5170 5165 5159 5154 5149 5144 5138 5132 5127 5121 5117 5113 5109 5105 5101
5322 5316 5309 5301 5294 5287 5281 5274 5268 5263 5257 5252 5248 5243 5237 5232 5227 5222 5216 5210 5204 5199 5193 5188 5182 5177 5172 5167 5162 5158 5153 5148 5143 5138 5133 5127 5122 5116 5112 5108 5104 5100 5096
5311 5305 5298 5290 5283 5277 5271 5265 5259 5253 5247 5242 5238 5233 5229 5222 5218 5212 5207 5201 5196 5190 5185 5180 5175 5170 5165 5160 5156 5151 5147 5142 5138 5132 5127 5122 5117 5112 5107 5103 5099 5095 5092
5300 5293 5286 5279 5273 5267 5261 5255 5248 5242 5237 5232 5227 5222 5219 5213 5207 5202 5197 5193 5187 5182 5177 5172 5168 5164 5160 5155 5150 5145 5141 5137 5133 5127 5122 5117 5112 5107 5102 5098 5094 5091 5087
5286 5280 5273 5267 5260 5255 5248 5242 5236 5231 5226 5221 5217 5212 5208 5204 5199 5194 5189 5184 5179 5175 5170 5165 5161 5158 5154 5149 5145 5140 5136 5132 5128 5123 5117 5112 5107 5102 5098 5094 5090 5086 5083
5273 5267 5260 5254 5247 5241 5236 5231 5226 5221 5216 5211 5207 5202 5198 5194 5190 5185 5181 5176 5171 5167 5163 5158 5155 5151 5148 5144 5139 5135 5131 5127 5123 5118 5113 5108 5103 5099 5094 5091 5087 5083 5080
5259 5252 5246 5240 5234 5228 5223 5218 5214 5209 5205 5201 5197 5193 5188 5184 5180 5176 5172 5168 5164 5160 5156 5152 5148 5145 5141 5138 5134 5130 5126 5122 5118 5114 5109 5104 5099 5095 5091 5087 5084 5080 5077
5245 5239 5233 5227 5222 5216 5211 5206 5202 5197 5193 5190 5186 5183 5179 5174 5171 5167 5163 5159 5156 5152 5148 5145 5142 5138 5135 5131 5128 5125 5122 5118 5115 5110 5105 5100 5096 5092 5088 5084 5081 5077 5074